Simultaneous Nadir Overpasses (SNOs) Predictions

Prediction of SNOs between AURA and NPP Satellite Orbit:

Table of predicted SNOs for the next 14.0 days since TLE Epoch: 8/24/2024
Index Date (AURA) Time (AURA) Lat,Lon (AURA) SZA (AURA ) Date (NPP) Time (NPP) Lat,Lon (NPP) SZA (NPP ) Distance(km) Time Diff (sec)
1 08/24/2024 11:11:38 -80.79, 103.51 100.84 08/24/2024 11:11:40 -80.78, 103.36 100.81 2.84 2
2 08/27/2024 00:05:46 -80.79, -89.96 100.01 08/27/2024 00:05:34 -80.78, -90.04 99.99 1.60 12
3 08/27/2024 00:55:07 80.83, 78.26 79.92 08/27/2024 00:56:16 80.83, 78.12 79.90 2.43 69
4 08/29/2024 12:59:52 -80.79, 76.53 99.15 08/29/2024 12:59:28 -80.78, 76.47 99.13 1.24 24
5 08/29/2024 13:49:13 80.83,-115.28 80.78 08/29/2024 13:50:10 80.83,-115.40 80.76 2.10 57
6 09/01/2024 01:53:56 -80.76,-117.36 98.22 09/01/2024 01:53:22 -80.76,-117.45 98.18 1.68 34
7 09/01/2024 02:43:16 80.82, 51.14 81.66 09/01/2024 02:44:03 80.82, 50.99 81.65 2.60 47
8 09/03/2024 14:47:58 -80.75, 49.05 97.32 09/03/2024 14:47:16 -80.75, 48.88 97.27 2.99 42
9 09/03/2024 15:37:17 80.84,-142.14 82.51 09/03/2024 15:37:55 80.85,-142.00 82.46 2.66 38
10 09/06/2024 03:41:56 -80.79,-143.91 96.52 09/06/2024 03:41:07 -80.79,-143.83 96.50 1.40 49



Historial Predications of SNOs between AURA and NPP
